Location: Linton
(52.0940°N, 0.2850°E)
Time: 18:22:32
(UTC+01:00)

ISS - Pass Details

Date: 14 October 2017
Orbit: 400 x 408 km, 51.6° (Epoch: 24 October)

Event Time Altitude Azimuth Distance (km) Brightness Sun altitude
Rises 19:48:09 0° 276° (W) 2,327 1.9 -16.4°
Reaches altitude 10° 19:51:54 10° 232° (SW) 1,463 -0.4 -16.9°
Maximum altitude 19:52:25 10° 223° (SW) 1,445 -0.6 -17.0°
Drops below altitude 10° 19:52:57 10° 213° (SSW) 1,462 -0.7 -17.1°
Enters shadow 19:55:34 - 178° (S) 1,969 -0.5 -17.5°
